Volver al catálogo

THOR ABLESTAR DEB

ActivoVLEO
NORAD 461·DEBRIS·🇺🇸 United States

Lanzado Jun 29, 1961 desde Cape Canaveral Space Force Station

Loading…

Próximos Pases (próximas 24 horas)

TLE

ActualizadoSource: Space-Track

Época: Sep 6, 2026, 23:49 UTC

1 00461U 61015EX  26249.99286942  .00019597  00000-0  11315-2 0  9990
2 00461  67.4894 213.7641 0025105 223.2976 136.6199 15.12097602398164

Sigue THOR ABLESTAR DEB en tiempo real con AllMySat

Download on the App Store